Change the Weather History Date:

Sunday, October 7, 2012

  Actual Average Record
Temperature  
Mean Temperature 51 °F 43 °F  
Max Temperature 52 °F 48 °F 60 °F (2013)
Min Temperature 49 °F 38 °F 27 °F (1982)
Degree Days  
Heating Degree Days 14 22  
Month to date heating degree days 123 151  
Since 1 July heating degree days 1640 1502  
Cooling Degree Days 0    
Month to date cooling degree days 0  
Year to date cooling degree days 0  
Moisture  
Dew Point 49 °F    
Average Humidity 0    
Maximum Humidity 0    
Minimum Humidity 0    
Precipitation  
Precipitation 1.62 in 0.15 in 3.02 in (2012)
Month to date precipitation 2.60 1.08  
Year to date precipitation 33.76 28.55  
Snow  
Snow 0.00 in 0.00 in 0.30 in (1963)
Month to date snowfall 0.0 0.1  
Since 1 July snowfall T 0.1  
Since 1 September snowfall 0.0 0.1  
Snow Depth 0.00 in    
Sea Level Pressure  
Sea Level Pressure 29.84 in    
Wind  
Wind Speed 20 mph (SE)    
Max Wind Speed 31 mph    
Max Gust Speed 37 mph    
Visibility 3 miles    
Events Rain    
T = Trace of Precipitation, MM = Missing Value Source: NWS Daily Summary

Daily Weather History Graph

Daily Weather History Graph

Search for Another Location

Airport or City:

Trip Planner

Search our weather history database for the weather conditions in past years. The results will help you decide how hot, cold, wet, or windy it might be!

Date:

Astronomy

Oct. 07, 2012 Rise Set
Actual Time 9:06 AM AKDT 8:09 PM AKDT
Civil Twilight 8:30 AM AKDT 8:45 PM AKDT
Nautical Twilight 7:47 AM AKDT 9:27 PM AKDT
Astronomical Twilight 7:04 AM AKDT 10:10 PM AKDT
Moon No Moon Rise 4:33 PM AKDT (10/7)
Length of Visible Light 12h 15m
Length of Day
11h 02m
Waning Gibbous, 55% of the Moon is Illuminated
Oct 7
Waning Gibbous
Oct 7
Last Quarter
Oct 15
New
Oct 21
First Quarter
Oct 29
Full

Hourly Weather History & Observations

Time (AKDT) Temp. Dew Point Humidity Pressure Visibility Wind Dir Wind Speed Gust Speed Precip Events Conditions
12:19 AM 48.2 °F 46.4 °F 93% 29.77 in 5.0 mi SE 11.5 mph - 0.01 in Rain Light Rain
12:53 AM 48.9 °F 46.9 °F 93% 29.77 in 5.0 mi SE 15.0 mph - 0.03 in Rain Light Rain
1:04 AM 48.2 °F 48.2 °F 100% 29.76 in 5.0 mi SE 16.1 mph - 0.00 in Rain Light Rain
1:51 AM 50.0 °F 48.2 °F 94% 29.76 in 4.0 mi SE 16.1 mph - 0.02 in Rain Light Rain
1:53 AM 50.0 °F 48.9 °F 96% 29.77 in 4.0 mi SE 18.4 mph - 0.02 in Rain Light Rain
2:03 AM 50.0 °F 48.2 °F 94% 29.76 in 4.0 mi SE 13.8 mph - 0.00 in Rain Light Rain
2:41 AM 51.8 °F 50.0 °F 94% 29.76 in 3.0 mi SE 19.6 mph 27.6 mph 0.02 in Rain Light Rain
2:51 AM 50.0 °F 48.2 °F 94% 29.76 in 4.0 mi SE 20.7 mph - 0.02 in Rain Light Rain
2:53 AM 50.0 °F 48.9 °F 96% 29.77 in 4.0 mi SE 19.6 mph - 0.02 in Rain Light Rain
3:34 AM 50.0 °F 48.2 °F 94% 29.77 in 4.0 mi SE 18.4 mph - 0.05 in Rain Light Rain
3:53 AM 50.0 °F 48.9 °F 96% 29.78 in 4.0 mi SE 17.3 mph - 0.08 in Rain Rain
4:16 AM 50.0 °F 50.0 °F 100% 29.78 in 3.0 mi SE 16.1 mph - 0.04 in Rain Rain
4:38 AM 51.8 °F 50.0 °F 94% 29.78 in 4.0 mi SE 13.8 mph - 0.10 in Rain Rain
4:53 AM 51.1 °F 50.0 °F 96% 29.78 in 4.0 mi SE 15.0 mph - 0.13 in Rain Rain
5:53 AM 51.1 °F 50.0 °F 96% 29.78 in 5.0 mi SE 16.1 mph - 0.15 in Rain Rain
6:30 AM 50.0 °F 50.0 °F 100% 29.78 in 4.0 mi SE 19.6 mph - 0.12 in Rain Rain
6:49 AM 50.0 °F 50.0 °F 100% 29.78 in 4.0 mi SSE 18.4 mph - 0.19 in Rain Rain
6:53 AM 50.0 °F 50.0 °F 100% 29.78 in 4.0 mi SSE 18.4 mph - 0.19 in Rain Rain
7:53 AM 51.1 °F 50.0 °F 96% 29.79 in 5.0 mi SSE 21.9 mph - 0.19 in Rain Rain
8:04 AM 51.8 °F 50.0 °F 94% 29.79 in 5.0 mi SSE 21.9 mph 27.6 mph 0.03 in Rain Rain
8:46 AM 51.8 °F 50.0 °F 94% 29.81 in 2.5 mi SSE 21.9 mph 28.8 mph 0.20 in   Overcast
8:53 AM 51.1 °F 50.0 °F 96% 29.81 in 3.0 mi SSE 19.6 mph 29.9 mph 0.24 in Rain Heavy Rain
9:08 AM 51.8 °F 50.0 °F 94% 29.81 in 3.0 mi SSE 23.0 mph - 0.06 in Rain Light Rain
9:11 AM 51.8 °F 50.0 °F 94% 29.81 in 2.5 mi South 21.9 mph - 0.07 in Rain Light Rain
9:27 AM 51.8 °F 50.0 °F 94% 29.80 in 5.0 mi SSE 21.9 mph - 0.15 in Rain Light Rain
9:53 AM 51.1 °F 50.0 °F 96% 29.81 in 4.0 mi SSE 18.4 mph 28.8 mph 0.22 in Rain Light Rain
10:37 AM 51.8 °F 51.8 °F 100% 29.81 in 5.0 mi SSE 26.5 mph 35.7 mph 0.08 in Rain Light Rain
10:53 AM 52.0 °F 51.1 °F 97% 29.81 in 4.0 mi SSE 25.3 mph 33.4 mph 0.13 in Rain Light Rain
11:02 AM 51.8 °F 51.8 °F 100% 29.80 in 3.0 mi SE 27.6 mph 36.8 mph 0.02 in Rain Light Rain
11:12 AM 51.8 °F 50.0 °F 94% 29.81 in 4.0 mi SE 28.8 mph 35.7 mph 0.05 in Rain Light Rain
11:41 AM 51.8 °F 50.0 °F 94% 29.82 in 1.8 mi SSE 24.2 mph 32.2 mph 0.15 in Rain Light Rain
11:53 AM 51.1 °F 50.0 °F 96% 29.83 in 2.0 mi SE 24.2 mph 33.4 mph 0.23 in Rain Light Rain
12:01 PM 51.8 °F 50.0 °F 94% 29.83 in 3.0 mi SSE 27.6 mph 35.7 mph 0.03 in Rain Light Rain
12:11 PM 51.8 °F 50.0 °F 94% 29.83 in 2.5 mi SSE 26.5 mph 35.7 mph 0.07 in Rain Light Rain
12:21 PM 51.8 °F 50.0 °F 94% 29.84 in 4.0 mi SSE 25.3 mph 35.7 mph 0.10 in Rain Light Rain
12:32 PM 51.8 °F 50.0 °F 94% 29.85 in 5.0 mi SSE 23.0 mph 33.4 mph 0.13 in Rain Light Rain
12:42 PM 51.8 °F 50.0 °F 94% 29.85 in 2.5 mi SSE 27.6 mph 32.2 mph 0.15 in Rain Light Rain
12:47 PM 51.8 °F 50.0 °F 94% 29.86 in 2.0 mi SSE 24.2 mph 32.2 mph 0.17 in Rain Light Rain
12:53 PM 51.1 °F 50.0 °F 96% 29.87 in 2.0 mi SSE 23.0 mph 31.1 mph 0.20 in Rain Light Rain
1:06 PM 50.0 °F 50.0 °F 100% 29.87 in 3.0 mi SSE 25.3 mph 33.4 mph 0.05 in Rain Rain
1:23 PM 50.0 °F 48.2 °F 94% 29.87 in 1.8 mi SSE 24.2 mph 33.4 mph 0.09 in Rain Light Rain
1:53 PM 50.0 °F 48.9 °F 96% 29.88 in 1.2 mi SSE 20.7 mph 28.8 mph 0.18 in   Overcast
2:01 PM 50.0 °F 48.2 °F 94% 29.88 in 3.0 mi SSE 21.9 mph - 0.00 in Rain Light Rain
2:10 PM 50.0 °F 50.0 °F 100% 29.88 in 1.8 mi SSE 23.0 mph 27.6 mph 0.02 in Rain Rain
2:29 PM 50.0 °F 50.0 °F 100% 29.87 in 1.0 mi SSE 24.2 mph - 0.09 in   Overcast
2:53 PM 50.0 °F 48.9 °F 96% 29.88 in 1.2 mi SSE 21.9 mph - 0.13 in   Overcast
3:15 PM 50.0 °F 48.2 °F 94% 29.87 in 2.0 mi SSE 24.2 mph - 0.04 in   Overcast
3:17 PM 50.0 °F 48.2 °F 94% 29.88 in 1.5 mi SSE 20.7 mph - 0.05 in   Overcast
3:53 PM 50.0 °F 48.9 °F 96% 29.89 in 2.0 mi SSE 23.0 mph 29.9 mph 0.18 in Rain Rain
3:59 PM 50.0 °F 48.2 °F 94% 29.89 in 3.0 mi SSE 23.0 mph 29.9 mph 0.02 in Rain Rain
4:34 PM 50.0 °F 48.2 °F 94% 29.88 in 2.0 mi SE 23.0 mph - 0.11 in Rain Rain
4:53 PM 50.0 °F 48.9 °F 96% 29.89 in 2.0 mi SE 21.9 mph - 0.15 in Rain Rain
5:09 PM 50.0 °F 48.2 °F 94% 29.89 in 1.8 mi SSE 20.7 mph - 0.03 in Rain Light Rain
5:31 PM 50.0 °F 48.2 °F 94% 29.89 in 2.0 mi SE 25.3 mph 31.1 mph 0.11 in Rain Rain
5:48 PM 50.0 °F 48.2 °F 94% 29.89 in 1.8 mi SE 26.5 mph - 0.16 in Rain Rain
5:53 PM 50.0 °F 48.9 °F 96% 29.89 in 1.5 mi SE 26.5 mph 33.4 mph 0.17 in Rain Rain
6:00 PM 50.0 °F 48.2 °F 94% 29.89 in 1.5 mi SE 27.6 mph 33.4 mph 0.02 in Rain Rain
6:08 PM 50.0 °F 48.2 °F 94% 29.89 in 1.5 mi SE 28.8 mph 35.7 mph 0.04 in Rain Rain
6:23 PM 50.0 °F 48.2 °F 94% 29.89 in 2.0 mi SE 31.1 mph 39.1 mph 0.06 in   Overcast
6:30 PM 50.0 °F 48.2 °F 94% 29.89 in 1.5 mi SE 31.1 mph 38.0 mph 0.08 in   Overcast
6:53 PM 50.0 °F 48.0 °F 93% 29.90 in 1.5 mi SE 31.1 mph 40.3 mph 0.12 in   Overcast
7:45 PM 48.2 °F 48.2 °F 100% 29.91 in 1.5 mi SE 28.8 mph 35.7 mph 0.10 in   Overcast
7:53 PM 48.9 °F 48.0 °F 97% 29.91 in 1.5 mi SE 29.9 mph 35.7 mph 0.11 in   Overcast
8:13 PM 48.2 °F 48.2 °F 100% 29.92 in 3.0 mi SE 26.5 mph 32.2 mph 0.04 in Rain Rain
8:38 PM 48.2 °F 48.2 °F 100% 29.93 in 2.5 mi SE 25.3 mph 33.4 mph 0.08 in   Overcast
8:53 PM 48.9 °F 48.0 °F 97% 29.94 in 2.5 mi SE 24.2 mph 32.2 mph 0.11 in Rain Light Rain
9:34 PM 48.2 °F 48.2 °F 100% 29.95 in 3.0 mi SE 31.1 mph 39.1 mph 0.04 in   Overcast
9:53 PM 48.9 °F 48.0 °F 97% 29.95 in 3.0 mi SE 29.9 mph 39.1 mph 0.05 in   Overcast
10:53 PM 50.0 °F 46.9 °F 89% 29.95 in 7.0 mi SE 29.9 mph 41.4 mph 0.01 in   Overcast
11:53 PM 50.0 °F 46.9 °F 89% 29.96 in 10.0 mi SE 26.5 mph 33.4 mph 0.01 in   Overcast